This demonstration page uses our WeatherBlox Daily Observations layout. Learn more.

Left ArrowRight Arrow

Hourly Observations for October 5, 2015

Temp ( °F °C ) Dew Point ( °F °C ) Humidity (%) Winds ( mph kmh ) Pressure ( in mb ) Visibility ( mi km ) Precip ( " mm )
12:53 am 00:53 Cloudy 38 3.3 33 0.6 83 83 SSE 3 6 30.15 1021 10 16 0.00 0.00
1:53 am 01:53 Mostly Cloudy 33 0.6 32 0 96 96 Calm 30.15 1021 10 16 0.00 0.00
2:04 am 02:04 Partly Cloudy 34 1 30 -1 87 87 Calm 30.18 1022 10 16 0.00 0.00
2:53 am 02:53 Mostly Clear 31 -0.6 30 -1.1 96 96 SSE 6 9 30.15 1021 10 16 0.00 0.00
3:53 am 03:53 Mostly Clear 33 0.6 32 0 96 96 Calm 30.13 1020 10 16 0.00 0.00
4:53 am 04:53 Mostly Clear 31 -0.6 29 -1.7 92 92 Calm 30.13 1020 10 16 0.00 0.00
5:28 am 05:28 Mostly Cloudy 32 0 30 -1 93 93 Calm 30.15 1021 10 16 0.00 0.00
5:35 am 05:35 Partly Cloudy 31 -0.6 30 -1.1 96 96 Calm 30.15 1021 10 16 0.00 0.00
5:53 am 05:53 Clear 31 -0.6 30 -1.1 96 96 ESE 3 6 30.12 1020 10 16 0.00 0.00
6:53 am 06:53 Clear 30 -1.1 28 -2.2 92 92 Calm 30.13 1020 10 16 0.00 0.00
7:53 am 07:53 Sunny 30 -1.1 29 -1.7 96 96 Calm 30.14 1021 10 16 0.00 0.00
8:53 am 08:53 Sunny 34 1.1 32 0 92 92 Calm 30.13 1020 10 16 0.00 0.00
9:53 am 09:53 Sunny 39 3.9 35 1.7 86 86 Calm 30.14 1021 10 16 0.00 0.00
10:28 am 10:28 Partly Cloudy 43 6 37 3 81 81 Calm 30.12 1020 10 16 0.00 0.00
10:37 am 10:37 Mostly Cloudy 42 5.6 37 2.8 82 82 VRB 3 6 30.12 1020 10 16 0.00 0.00
10:53 am 10:53 Partly Cloudy 42 5.6 37 2.8 82 82 Calm 30.13 1020 10 16 0.00 0.00
11:53 am 11:53 Sunny 46 7.8 38 3.3 73 73 S 5 7 30.12 1020 10 16 0.00 0.00
12:53 pm 12:53 Sunny 49 9.4 40 4.4 71 71 WSW 8 13 30.11 1020 10 16 0.00 0.00
1:53 pm 13:53 Sunny 51 10.6 41 5 69 69 undefined N/A 30.11 1020 10 16 0.00 0.00
2:53 pm 14:53 Sunny 56 13.3 44 6.7 65 65 WSW 12 19 30.09 1019 10 16 0.00 0.00
3:53 pm 15:53 Sunny 58 14.4 43 6.1 58 58 W 8 13 30.09 1019 10 16 0.00 0.00
4:53 pm 16:53 Sunny 58 14.4 43 6.1 58 58 WSW 10 17 30.09 1019 10 16 0.00 0.00
5:53 pm 17:53 Sunny 57 13.9 43 6.1 60 60 SW 8 13 30.10 1019 10 16 0.00 0.00
6:53 pm 18:53 Clear 52 11.1 44 6.7 75 75 WSW 3 6 30.13 1020 10 16 0.00 0.00
7:53 pm 19:53 Clear 50 10 43 6.1 77 77 SSE 3 6 30.15 1021 10 16 0.00 0.00
8:53 pm 20:53 Clear 44 6.7 41 5 89 89 ESE 3 6 30.17 1022 10 16 0.00 0.00
9:53 pm 21:53 Clear 42 5.6 40 4.4 92 92 Calm 30.17 1022 10 16 0.00 0.00
10:53 pm 22:53 Clear 40 4.4 37 2.8 89 89 Calm 30.17 1022 10 16 0.00 0.00
11:53 pm 23:53 Clear 38 3.3 35 1.7 89 89 Calm 30.19 1022 10 16 0.00 0.00

Powered by AerisWeather